Bloomington, IL

7:59 PM CDT on May 20, 2018 (GMT -0500)
Central Ill Regional

Weather History for KBMI - May, 2013

Change the Weather History Date:

Sunday, May 5, 2013

  Actual Average Record
Temperature  
Mean Temperature 60 °F -  
Max Temperature 70 °F 80 °F 84 °F (2012)
Min Temperature 52 °F 71 °F 37 °F (2011)
Degree Days  
Heating Degree Days 5    
Growing Degree Days 10 (Base 50)    
Moisture  
Dew Point 53 °F    
Average Humidity 84    
Maximum Humidity 100    
Minimum Humidity 50    
Precipitation  
Precipitation 0.00 in - - ()
Sea Level Pressure  
Sea Level Pressure 29.98 in    
Wind  
Wind Speed 8 mph (NE)    
Max Wind Speed 18 mph    
Max Gust Speed -    
Visibility 10 miles    
Events Rain    
Averages and records for this station are not official NWS values.
T = Trace of Precipitation, MM = Missing Value Source: NWS Daily Summary

Daily Weather History Graph

Daily Weather History Graph

Search for Another Location

Airport or City:

Astronomy

May. 05, 2013 Rise Set
Actual Time 5:49 AM CDT 7:55 PM CDT
Civil Twilight 5:19 AM CDT 8:25 PM CDT
Nautical Twilight 4:42 AM CDT 9:02 PM CDT
Astronomical Twilight 4:02 AM CDT 9:42 PM CDT
Moon 3:20 AM CDT (5/5) 3:54 PM CDT (5/5)
Length of Visible Light 15h 06m
Length of Day
14h 06m
Waning Crescent, 18% of the Moon is Illuminated
May 5
Waning Crescent
May 9
New
May 17
First Quarter
May 24
Full
May 31
Last Quarter

Hourly Weather History & Observations

Time (CDT) Temp. Dew Point Humidity Pressure Visibility Wind Dir Wind Speed Gust Speed Precip Events Conditions
12:56 AM 54.0 °F 52.0 °F 93% 30.03 in 10.0 mi North 4.6 mph - N/A   Overcast
1:31 AM 53.6 °F 53.6 °F 100% 30.03 in 10.0 mi NE 4.6 mph - N/A   Overcast
1:56 AM 54.0 °F 52.9 °F 96% 30.02 in 10.0 mi NE 6.9 mph - N/A   Overcast
2:40 AM 53.6 °F 53.6 °F 100% 30.01 in 10.0 mi NNE 5.8 mph - N/A   Overcast
2:56 AM 52.9 °F 52.9 °F 100% 30.01 in 10.0 mi NE 4.6 mph - N/A   Overcast
3:44 AM 53.6 °F 53.6 °F 100% 30.00 in 9.0 mi NNE 4.6 mph - 0.00 in Rain Light Rain
3:56 AM 54.0 °F 52.9 °F 96% 30.00 in 8.0 mi NNE 4.6 mph - 0.00 in Rain Light Rain
4:56 AM 54.0 °F 52.9 °F 96% 30.00 in 10.0 mi NNW 4.6 mph - 0.00 in   Mostly Cloudy
5:56 AM 52.9 °F 52.9 °F 100% 29.99 in 10.0 mi NNW 5.8 mph - N/A   Overcast
6:56 AM 54.0 °F 52.9 °F 96% 29.99 in 4.0 mi North 8.1 mph - N/A   Mostly Cloudy
7:56 AM 55.9 °F 54.0 °F 93% 29.98 in 8.0 mi North 11.5 mph - N/A   Mostly Cloudy
8:56 AM 55.9 °F 52.9 °F 89% 30.00 in 10.0 mi NNE 11.5 mph - N/A   Mostly Cloudy
9:56 AM 57.9 °F 52.9 °F 83% 29.99 in 10.0 mi NNE 8.1 mph - N/A   Partly Cloudy
10:56 AM 63.0 °F 54.9 °F 75% 29.98 in 10.0 mi NNE 8.1 mph - N/A   Clear
11:56 AM 66.9 °F 55.9 °F 68% 29.95 in 10.0 mi NNE 12.7 mph - N/A   Clear
12:56 PM 68.9 °F 54.9 °F 61% 29.94 in 10.0 mi NE 10.4 mph - N/A   Scattered Clouds
1:56 PM 68.9 °F 52.9 °F 57% 29.93 in 10.0 mi East 15.0 mph - N/A   Scattered Clouds
2:56 PM 68.0 °F 48.9 °F 50% 29.93 in 10.0 mi East 18.4 mph - N/A   Scattered Clouds
3:56 PM 66.9 °F 50.9 °F 56% 29.92 in 10.0 mi East 17.3 mph - N/A   Partly Cloudy
4:56 PM 63.9 °F 52.9 °F 67% 29.94 in 10.0 mi East 16.1 mph - N/A   Partly Cloudy
5:56 PM 61.0 °F 54.0 °F 78% 29.96 in 10.0 mi East 13.8 mph - 0.00 in Rain Light Rain
6:56 PM 59.9 °F 54.9 °F 83% 29.96 in 10.0 mi NE 6.9 mph - 0.00 in   Mostly Cloudy
7:56 PM 59.0 °F 54.9 °F 86% 29.97 in 10.0 mi NNE 6.9 mph - 0.00 in Rain Light Rain
8:56 PM 59.9 °F 54.0 °F 81% 29.99 in 10.0 mi East 12.7 mph - 0.00 in   Overcast
9:16 PM 57.2 °F 53.6 °F 88% 30.00 in 10.0 mi ESE 12.7 mph - 0.00 in   Mostly Cloudy
9:56 PM 56.8 °F 52.9 °F 87% 30.01 in 10.0 mi East 9.2 mph - 0.00 in   Mostly Cloudy
10:56 PM 56.8 °F 52.9 °F 87% 30.01 in 10.0 mi East 15.0 mph - 0.00 in   Mostly Cloudy
11:56 PM 54.9 °F 52.0 °F 90% 30.00 in 10.0 mi East 3.5 mph - 0.00 in   Scattered Clouds